CMP421 SAME-MPTO

Flight info

Callsign CMP421
Flight time 6h 21m
Altitude 34000
Route MEBR2G MEBRA UW44 JUA UL416 TOY UL302 JCL UM674 TOKUT SIRIL SIRI3A
Aircraft B38M/M-SDE3FGHIRWY/S

Departure

Time 2026-05-06 16:36
Airport Governor Francisco Gabrielli International Airport (SAME)

Arrival

Time 2026-05-06 22:57
Airport Tocumen International Airport (MPTO)
Time Latitude Longitude Altitude Speed Heading
2026-05-06 15:50 -32.82764 -68.79775 2354 ft 0 kts 265°
2026-05-06 16:25 -32.82763 -68.79766 2361 ft 4 kts 266°
2026-05-06 16:25 -32.82762 -68.79738 2361 ft 4 kts 263°
2026-05-06 16:25 -32.82752 -68.79713 2361 ft 4 kts 211°
2026-05-06 16:25 -32.82730 -68.79706 2361 ft 1 kts 183°
2026-05-06 16:26 -32.82729 -68.79706 2361 ft 2 kts 183°
2026-05-06 16:29 -32.82731 -68.79706 2361 ft 1 kts 183°
2026-05-06 16:30 -32.82738 -68.79706 2364 ft 2 kts 183°
2026-05-06 16:30 -32.82754 -68.79707 2362 ft 6 kts 182°
2026-05-06 16:30 -32.82854 -68.79709 2363 ft 16 kts 180°
2026-05-06 16:30 -32.82925 -68.79700 2363 ft 5 kts 129°
2026-05-06 16:31 -32.82932 -68.79639 2363 ft 10 kts 100°
2026-05-06 16:31 -32.82982 -68.79569 2363 ft 13 kts 139°
2026-05-06 16:31 -32.83074 -68.79512 2363 ft 17 kts 178°
2026-05-06 16:31 -32.83199 -68.79515 2364 ft 18 kts 181°
2026-05-06 16:32 -32.83329 -68.79517 2365 ft 18 kts 181°
2026-05-06 16:32 -32.83446 -68.79520 2365 ft 18 kts 181°
2026-05-06 16:32 -32.83580 -68.79523 2365 ft 20 kts 181°
2026-05-06 16:32 -32.83726 -68.79526 2366 ft 21 kts 181°
2026-05-06 16:33 -32.83862 -68.79529 2365 ft 20 kts 181°
2026-05-06 16:33 -32.83969 -68.79531 2365 ft 12 kts 181°
2026-05-06 16:33 -32.84028 -68.79526 2365 ft 7 kts 157°
2026-05-06 16:34 -32.84169 -68.79459 2368 ft 14 kts 161°
2026-05-06 16:34 -32.84250 -68.79419 2369 ft 10 kts 141°
2026-05-06 16:34 -32.84282 -68.79352 2370 ft 8 kts 103°
2026-05-06 16:34 -32.84262 -68.79308 2374 ft 5 kts
2026-05-06 16:35 -32.84238 -68.79309 2371 ft 2 kts 360°
2026-05-06 16:35 -32.84138 -68.79308 2371 ft 42 kts 360°
2026-05-06 16:35 -32.83622 -68.79298 2368 ft 107 kts
2026-05-06 16:35 -32.82682 -68.79281 2371 ft 161 kts
2026-05-06 16:36 -32.81447 -68.79250 2580 ft 186 kts
2026-05-06 16:36 -32.80111 -68.79219 3138 ft 198 kts
2026-05-06 16:36 -32.78717 -68.79169 3899 ft 198 kts
2026-05-06 16:36 -32.77299 -68.79117 4443 ft 214 kts
2026-05-06 16:37 -32.75789 -68.78639 4826 ft 240 kts 26°
2026-05-06 16:37 -32.74511 -68.77247 5332 ft 262 kts 54°
2026-05-06 16:37 -32.73840 -68.75154 5921 ft 282 kts 77°
2026-05-06 16:37 -32.73648 -68.72840 6825 ft 283 kts 83°
2026-05-06 16:38 -32.73535 -68.70475 7553 ft 291 kts 82°
2026-05-06 16:38 -32.73348 -68.68037 8216 ft 300 kts 79°
2026-05-06 16:38 -32.73010 -68.65594 9049 ft 298 kts 70°
2026-05-06 16:38 -32.72230 -68.63325 9767 ft 296 kts 51°
2026-05-06 16:39 -32.70821 -68.61657 10457 ft 288 kts 25°
2026-05-06 16:39 -32.68987 -68.60720 11092 ft 289 kts 13°
2026-05-06 16:39 -32.67046 -68.59990 11663 ft 299 kts 13°
2026-05-06 16:39 -32.65004 -68.59189 11946 ft 319 kts 15°
2026-05-06 16:40 -32.62842 -68.58296 12187 ft 339 kts 15°
2026-05-06 16:40 -32.60560 -68.57332 12424 ft 357 kts 16°
2026-05-06 16:40 -32.58179 -68.56309 12801 ft 369 kts 15°
2026-05-06 16:40 -32.55757 -68.55261 13451 ft 371 kts 14°
2026-05-06 16:41 -32.53316 -68.54203 14002 ft 376 kts 14°
2026-05-06 16:41 -32.50872 -68.53142 14567 ft 380 kts 13°
2026-05-06 16:41 -32.48379 -68.52060 15059 ft 384 kts 11°
2026-05-06 16:41 -32.45853 -68.50963 15587 ft 388 kts 11°
2026-05-06 16:42 -32.43307 -68.49859 16126 ft 392 kts 11°
2026-05-06 16:42 -32.40734 -68.48744 16647 ft 395 kts 11°
2026-05-06 16:42 -32.38144 -68.47622 17176 ft 398 kts 10°
2026-05-06 16:42 -32.35529 -68.46490 17688 ft 402 kts 10°
2026-05-06 16:43 -32.32890 -68.45349 18170 ft 405 kts 10°
2026-05-06 16:43 -32.30236 -68.44201 18574 ft 408 kts 10°
2026-05-06 16:43 -32.27556 -68.43043 19071 ft 410 kts 10°
2026-05-06 16:43 -32.24869 -68.41882 19515 ft 413 kts 10°
2026-05-06 16:44 -32.22161 -68.40714 19986 ft 415 kts 10°
2026-05-06 16:44 -32.19437 -68.39539 20418 ft 418 kts
2026-05-06 16:44 -32.16741 -68.38377 20856 ft 421 kts
2026-05-06 16:44 -32.13981 -68.37188 21288 ft 424 kts
2026-05-06 16:45 -32.11203 -68.35993 21721 ft 426 kts
2026-05-06 16:45 -32.08399 -68.34800 22145 ft 426 kts
2026-05-06 16:45 -32.05554 -68.34227 22481 ft 407 kts 350°
2026-05-06 16:45 -32.02753 -68.34461 22790 ft 404 kts 344°
2026-05-06 16:46 -31.99962 -68.34823 23215 ft 404 kts 343°
2026-05-06 16:46 -31.98109 -68.35097 23448 ft 405 kts 342°
2026-05-06 16:46 -31.95305 -68.35538 23801 ft 407 kts 342°
2026-05-06 16:46 -31.92471 -68.36003 24184 ft 408 kts 342°
2026-05-06 16:47 -31.89696 -68.36469 24533 ft 409 kts 342°
2026-05-06 16:47 -31.86870 -68.36950 24890 ft 411 kts 342°
2026-05-06 16:47 -31.84032 -68.37434 25247 ft 412 kts 342°
2026-05-06 16:47 -31.81185 -68.37920 25587 ft 414 kts 342°
2026-05-06 16:48 -31.78323 -68.38409 25866 ft 416 kts 342°
2026-05-06 16:48 -31.75433 -68.38902 26029 ft 423 kts 342°
2026-05-06 16:48 -31.72520 -68.39398 26408 ft 423 kts 342°
2026-05-06 16:48 -31.69599 -68.39895 26714 ft 425 kts 342°
2026-05-06 16:49 -31.66674 -68.40393 27037 ft 426 kts 342°
2026-05-06 16:49 -31.63730 -68.40894 27433 ft 428 kts 342°
2026-05-06 16:49 -31.60823 -68.41555 27720 ft 419 kts 333°
2026-05-06 16:49 -31.58277 -68.43014 28117 ft 401 kts 318°
2026-05-06 16:50 -31.56220 -68.45137 28464 ft 390 kts 306°
2026-05-06 16:50 -31.54643 -68.47693 28848 ft 384 kts 300°
2026-05-06 16:50 -31.53268 -68.50322 29332 ft 381 kts 298°
2026-05-06 16:50 -31.51982 -68.53010 29927 ft 377 kts 296°
2026-05-06 16:51 -31.50762 -68.55709 30392 ft 372 kts 295°
2026-05-06 16:51 -31.49592 -68.58386 30880 ft 366 kts 294°
2026-05-06 16:51 -31.48456 -68.61022 31342 ft 361 kts 294°
2026-05-06 16:51 -31.47339 -68.63641 31818 ft 357 kts 294°
2026-05-06 16:52 -31.46239 -68.66233 32288 ft 352 kts 294°
2026-05-06 16:52 -31.45157 -68.68788 32731 ft 348 kts 294°
2026-05-06 16:52 -31.44089 -68.71310 33158 ft 344 kts 294°
2026-05-06 16:52 -31.43045 -68.73775 33599 ft 341 kts 294°
2026-05-06 16:53 -31.41991 -68.76263 33726 ft 340 kts 294°
2026-05-06 16:53 -31.39902 -68.81190 33720 ft 337 kts 294°
2026-05-06 16:54 -31.37820 -68.86091 33814 ft 337 kts 294°
2026-05-06 16:54 -31.35731 -68.91006 33698 ft 336 kts 294°
2026-05-06 16:54 -31.34707 -68.93408 33799 ft 332 kts 294°
2026-05-06 16:55 -31.33682 -68.95813 33744 ft 329 kts 294°
2026-05-06 16:55 -31.31638 -69.00607 33771 ft 328 kts 294°
2026-05-06 16:56 -31.29597 -69.05388 33798 ft 330 kts 294°
2026-05-06 16:56 -31.27550 -69.10175 33787 ft 330 kts 294°
2026-05-06 16:57 -31.25494 -69.14977 33861 ft 331 kts 294°
2026-05-06 16:57 -31.23446 -69.19757 33856 ft 331 kts 294°
2026-05-06 16:58 -31.21378 -69.24581 33817 ft 335 kts 294°
2026-05-06 16:58 -31.19285 -69.29450 33849 ft 334 kts 295°
2026-05-06 16:59 -31.17364 -69.34351 33772 ft 333 kts 293°
2026-05-06 16:59 -31.15491 -69.39238 33829 ft 329 kts 292°
2026-05-06 17:00 -31.13619 -69.44104 33872 ft 328 kts 292°
2026-05-06 17:00 -31.11749 -69.48956 33862 ft 327 kts 292°
2026-05-06 17:01 -31.09879 -69.53800 33964 ft 328 kts 292°
2026-05-06 17:01 -31.08019 -69.58614 33894 ft 327 kts 292°
2026-05-06 17:02 -31.06143 -69.63462 33886 ft 328 kts 292°
2026-05-06 17:02 -31.04267 -69.68296 33939 ft 328 kts 293°
2026-05-06 17:03 -31.02247 -69.73067 33968 ft 329 kts 294°
2026-05-06 17:03 -31.00219 -69.77851 33964 ft 329 kts 294°
2026-05-06 17:04 -30.98192 -69.82630 34014 ft 325 kts 294°
2026-05-06 17:04 -30.96199 -69.87336 34105 ft 323 kts 294°
2026-05-06 17:05 -30.94225 -69.91986 33878 ft 324 kts 294°
2026-05-06 17:05 -30.93215 -69.94357 34099 ft 324 kts 294°
2026-05-06 17:05 -30.92210 -69.96715 34075 ft 324 kts 294°
2026-05-06 17:06 -30.90204 -70.01423 34057 ft 324 kts 294°
2026-05-06 17:06 -30.88188 -70.06151 34083 ft 327 kts 294°
2026-05-06 17:07 -30.86164 -70.10889 34103 ft 326 kts 294°
2026-05-06 17:07 -30.84146 -70.15612 34084 ft 326 kts 294°
2026-05-06 17:08 -30.82124 -70.20331 34134 ft 326 kts 294°
2026-05-06 17:08 -30.81109 -70.22702 34025 ft 329 kts 294°
2026-05-06 17:08 -30.80091 -70.25075 34113 ft 329 kts 294°
2026-05-06 17:09 -30.78031 -70.29876 34158 ft 335 kts 294°
2026-05-06 17:09 -30.75943 -70.34733 34101 ft 336 kts 294°
2026-05-06 17:10 -30.73845 -70.39605 34161 ft 339 kts 294°
2026-05-06 17:10 -30.71756 -70.44454 34182 ft 336 kts 294°
2026-05-06 17:11 -30.69683 -70.49345 34139 ft 336 kts 294°
2026-05-06 17:11 -30.67611 -70.54249 34064 ft 339 kts 294°
2026-05-06 17:12 -30.65508 -70.59212 34144 ft 345 kts 294°
2026-05-06 17:12 -30.63351 -70.64296 34110 ft 354 kts 294°
2026-05-06 17:13 -30.61194 -70.69374 34143 ft 354 kts 294°
2026-05-06 17:13 -30.59022 -70.74500 34131 ft 352 kts 294°
2026-05-06 17:14 -30.56870 -70.79620 34095 ft 352 kts 294°
2026-05-06 17:14 -30.54707 -70.84727 34127 ft 353 kts 294°
2026-05-06 17:15 -30.52517 -70.89805 34070 ft 354 kts 294°
2026-05-06 17:15 -30.50288 -70.94970 34122 ft 362 kts 294°
2026-05-06 17:16 -30.48041 -71.00174 34107 ft 361 kts 294°
2026-05-06 17:16 -30.45785 -71.05391 34106 ft 361 kts 294°
2026-05-06 17:17 -30.43543 -71.10567 34129 ft 362 kts 294°
2026-05-06 17:17 -30.41299 -71.15774 34135 ft 362 kts 294°
2026-05-06 17:18 -30.39060 -71.20970 34119 ft 356 kts 294°
2026-05-06 17:18 -30.36853 -71.26082 34136 ft 355 kts 294°
2026-05-06 17:19 -30.34647 -71.31191 34146 ft 354 kts 294°
2026-05-06 17:19 -30.32434 -71.36303 34139 ft 355 kts 294°
2026-05-06 17:20 -30.30234 -71.41381 34131 ft 355 kts 294°
2026-05-06 17:20 -30.27551 -71.46180 34121 ft 364 kts 312°
2026-05-06 17:20 -30.25407 -71.47812 34145 ft 380 kts 326°
2026-05-06 17:21 -30.22894 -71.48910 34140 ft 389 kts 330°
2026-05-06 17:21 -30.17734 -71.50896 34084 ft 391 kts 330°
2026-05-06 17:22 -30.12546 -71.52798 34139 ft 391 kts 331°
2026-05-06 17:22 -30.07354 -71.54670 34136 ft 391 kts 331°
2026-05-06 17:23 -30.02155 -71.56538 34152 ft 393 kts 332°
2026-05-06 17:23 -29.96878 -71.58433 34148 ft 402 kts 332°
2026-05-06 17:24 -29.91547 -71.60344 34135 ft 404 kts 332°
2026-05-06 17:24 -29.86181 -71.62266 34138 ft 404 kts 332°
2026-05-06 17:25 -29.80810 -71.64187 34139 ft 404 kts 332°
2026-05-06 17:25 -29.75444 -71.66105 34138 ft 404 kts 332°
2026-05-06 17:26 -29.70076 -71.68021 34139 ft 404 kts 332°
2026-05-06 17:26 -29.64714 -71.69933 34125 ft 401 kts 332°
2026-05-06 17:27 -29.59433 -71.71814 34134 ft 399 kts 331°
2026-05-06 17:27 -29.54129 -71.73701 34140 ft 399 kts 331°
2026-05-06 17:28 -29.48822 -71.75587 34143 ft 399 kts 331°
2026-05-06 17:28 -29.43514 -71.77490 34140 ft 399 kts 331°
2026-05-06 17:29 -29.38218 -71.79388 34113 ft 397 kts 331°
2026-05-06 17:29 -29.32982 -71.81262 34135 ft 396 kts 331°
2026-05-06 17:30 -29.27727 -71.83141 34138 ft 396 kts 331°
2026-05-06 17:30 -29.22473 -71.85017 34135 ft 396 kts 331°
2026-05-06 17:31 -29.17214 -71.86893 34135 ft 396 kts 331°
2026-05-06 17:31 -29.11948 -71.88769 34098 ft 395 kts 331°
2026-05-06 17:32 -29.06702 -71.90637 34131 ft 395 kts 331°
2026-05-06 17:32 -29.01442 -71.92507 34131 ft 397 kts 331°
2026-05-06 17:33 -28.96185 -71.94374 34136 ft 398 kts 331°
2026-05-06 17:33 -28.90900 -71.96250 34129 ft 398 kts 331°
2026-05-06 17:34 -28.85608 -71.98125 34100 ft 397 kts 332°
2026-05-06 17:34 -28.80329 -71.99994 34130 ft 397 kts 332°
2026-05-06 17:35 -28.75048 -72.01862 34129 ft 397 kts 332°
2026-05-06 17:35 -28.69793 -72.03719 34130 ft 397 kts 332°
2026-05-06 17:36 -28.61867 -72.06516 34130 ft 397 kts 332°
2026-05-06 17:36 -28.57486 -72.08060 34121 ft 397 kts 332°
2026-05-06 17:37 -28.52210 -72.09918 34127 ft 397 kts 332°
2026-05-06 17:37 -28.46073 -72.12067 34132 ft 397 kts 332°
2026-05-06 17:38 -28.41649 -72.13614 34133 ft 397 kts 332°
2026-05-06 17:38 -28.36408 -72.15445 34130 ft 397 kts 332°
2026-05-06 17:39 -28.31129 -72.17287 34112 ft 398 kts 332°
2026-05-06 17:39 -28.25823 -72.19137 34129 ft 398 kts 332°
2026-05-06 17:40 -28.20523 -72.20982 34131 ft 398 kts 332°
2026-05-06 17:40 -28.15255 -72.22815 34128 ft 398 kts 332°
2026-05-06 17:41 -28.09974 -72.24650 34128 ft 398 kts 332°
2026-05-06 17:41 -28.04673 -72.26491 34105 ft 399 kts 332°
2026-05-06 17:42 -27.99357 -72.28335 34128 ft 400 kts 332°
2026-05-06 17:42 -27.94035 -72.30178 34130 ft 400 kts 332°
2026-05-06 17:43 -27.88718 -72.32019 34128 ft 400 kts 332°
2026-05-06 17:43 -27.83404 -72.33856 34127 ft 400 kts 332°
2026-05-06 17:44 -27.78117 -72.35682 34096 ft 400 kts 332°
2026-05-06 17:44 -27.72775 -72.37525 34123 ft 401 kts 332°
2026-05-06 17:45 -27.67429 -72.39368 34124 ft 401 kts 333°
2026-05-06 17:45 -27.62095 -72.41205 34123 ft 401 kts 333°
2026-05-06 17:46 -27.56756 -72.43042 34126 ft 401 kts 333°
2026-05-06 17:46 -27.51416 -72.44880 34080 ft 401 kts 333°
2026-05-06 17:47 -27.46095 -72.46713 34126 ft 403 kts 333°
2026-05-06 17:47 -27.40712 -72.48567 34120 ft 402 kts 333°
2026-05-06 17:48 -27.35383 -72.50399 34118 ft 403 kts 333°
2026-05-06 17:48 -27.30025 -72.52240 34119 ft 402 kts 333°
2026-05-06 17:49 -27.24661 -72.54081 34123 ft 403 kts 333°
2026-05-06 17:49 -27.19296 -72.55920 34117 ft 403 kts 333°
2026-05-06 17:50 -27.13939 -72.57755 34121 ft 403 kts 333°
2026-05-06 17:50 -27.08578 -72.59589 34118 ft 403 kts 333°
2026-05-06 17:51 -27.03249 -72.61411 34122 ft 403 kts 333°
2026-05-06 17:51 -26.97872 -72.63247 34094 ft 403 kts 333°
2026-05-06 17:52 -26.92503 -72.65079 34121 ft 405 kts 333°
2026-05-06 17:52 -26.87114 -72.66915 34119 ft 404 kts 333°
2026-05-06 17:53 -26.81725 -72.68750 34115 ft 405 kts 333°
2026-05-06 17:53 -26.76341 -72.70581 34115 ft 405 kts 333°
2026-05-06 17:54 -26.70948 -72.72414 34120 ft 405 kts 333°
2026-05-06 17:54 -26.65601 -72.74229 34114 ft 405 kts 333°
2026-05-06 17:55 -26.60215 -72.76055 34114 ft 404 kts 333°
2026-05-06 17:55 -26.54824 -72.77882 34116 ft 404 kts 333°
2026-05-06 17:56 -26.49435 -72.79705 34113 ft 404 kts 333°
2026-05-06 17:56 -26.44058 -72.81523 34115 ft 404 kts 333°
2026-05-06 17:57 -26.38666 -72.83345 34100 ft 404 kts 332°
2026-05-06 17:57 -26.33283 -72.85162 34111 ft 404 kts 332°
2026-05-06 17:58 -26.27903 -72.86975 34114 ft 404 kts 332°
2026-05-06 17:58 -26.22554 -72.88777 34105 ft 404 kts 332°
2026-05-06 17:59 -26.17177 -72.90586 34115 ft 404 kts 332°
2026-05-06 17:59 -26.11795 -72.92395 34083 ft 404 kts 332°
2026-05-06 18:00 -26.06398 -72.94208 34115 ft 405 kts 332°
2026-05-06 18:00 -26.00996 -72.96020 34122 ft 405 kts 332°
2026-05-06 18:01 -25.95607 -72.97827 34114 ft 405 kts 333°
2026-05-06 18:01 -25.90207 -72.99635 34113 ft 405 kts 333°
2026-05-06 18:02 -25.84802 -73.01443 34078 ft 405 kts 333°
2026-05-06 18:02 -25.79420 -73.03242 34114 ft 407 kts 333°
2026-05-06 18:03 -25.73993 -73.05054 34113 ft 406 kts 333°
2026-05-06 18:03 -25.68586 -73.06858 34113 ft 406 kts 333°
2026-05-06 18:04 -25.63175 -73.08661 34114 ft 406 kts 333°
2026-05-06 18:04 -25.57756 -73.10465 34113 ft 406 kts 333°
2026-05-06 18:05 -25.52334 -73.12269 34110 ft 407 kts 333°
2026-05-06 18:05 -25.46909 -73.14072 34110 ft 407 kts 333°
2026-05-06 18:06 -25.41514 -73.15863 34111 ft 407 kts 333°
2026-05-06 18:06 -25.36086 -73.17664 34109 ft 407 kts 333°
2026-05-06 18:07 -25.30652 -73.19464 34111 ft 407 kts 333°
2026-05-06 18:07 -25.25226 -73.21261 34089 ft 408 kts 334°
2026-05-06 18:08 -25.19763 -73.23068 34103 ft 409 kts 334°
2026-05-06 18:08 -25.14312 -73.24870 34110 ft 409 kts 334°
2026-05-06 18:09 -25.08854 -73.26671 34107 ft 409 kts 334°
2026-05-06 18:09 -25.03400 -73.28470 34107 ft 409 kts 334°
2026-05-06 18:10 -24.97993 -73.30252 34090 ft 409 kts 334°
2026-05-06 18:10 -24.92523 -73.32053 34114 ft 411 kts 334°
2026-05-06 18:11 -24.87047 -73.33854 34106 ft 410 kts 334°
2026-05-06 18:11 -24.81564 -73.35656 34111 ft 411 kts 334°
2026-05-06 18:12 -24.76089 -73.37454 34104 ft 411 kts 334°
2026-05-06 18:12 -24.70611 -73.39251 34105 ft 411 kts 334°
2026-05-06 18:13 -24.65168 -73.41035 34104 ft 412 kts 335°
2026-05-06 18:13 -24.59673 -73.42834 34107 ft 412 kts 335°
2026-05-06 18:14 -24.54175 -73.44632 34108 ft 412 kts 335°
2026-05-06 18:14 -24.48691 -73.46424 34108 ft 412 kts 335°
2026-05-06 18:15 -24.43195 -73.48219 34102 ft 412 kts 335°
2026-05-06 18:15 -24.37725 -73.50004 34102 ft 412 kts 335°
2026-05-06 18:16 -24.32231 -73.51795 34105 ft 412 kts 335°
2026-05-06 18:16 -24.26740 -73.53583 34105 ft 412 kts 335°
2026-05-06 18:17 -24.21240 -73.55373 34102 ft 412 kts 335°
2026-05-06 18:17 -24.15739 -73.57161 34102 ft 412 kts 335°
2026-05-06 18:18 -24.10273 -73.58937 34074 ft 413 kts 335°
2026-05-06 18:18 -24.04743 -73.60732 34103 ft 416 kts 335°
2026-05-06 18:19 -23.99186 -73.62534 34100 ft 416 kts 335°
2026-05-06 18:19 -23.93639 -73.64335 34103 ft 416 kts 335°
2026-05-06 18:20 -23.88086 -73.66136 34115 ft 415 kts 335°
2026-05-06 18:20 -23.82566 -73.67925 34100 ft 413 kts 335°
2026-05-06 18:21 -23.77047 -73.69712 34094 ft 416 kts 335°
2026-05-06 18:21 -23.71491 -73.71509 34101 ft 416 kts 335°
2026-05-06 18:22 -23.65934 -73.73306 34102 ft 416 kts 335°
2026-05-06 18:22 -23.60377 -73.75100 34098 ft 416 kts 335°
2026-05-06 18:23 -23.55769 -73.76587 34097 ft 416 kts 335°
2026-05-06 18:23 -23.50215 -73.78378 34083 ft 417 kts 336°
2026-05-06 18:24 -23.43728 -73.80467 34088 ft 418 kts 336°
2026-05-06 18:24 -23.39058 -73.81970 34092 ft 418 kts 336°
2026-05-06 18:25 -23.33488 -73.83762 34101 ft 418 kts 336°
2026-05-06 18:25 -23.27946 -73.85542 34101 ft 418 kts 336°
2026-05-06 18:26 -23.22364 -73.87334 34079 ft 418 kts 336°
2026-05-06 18:26 -23.16749 -73.89135 34090 ft 422 kts 336°
2026-05-06 18:27 -23.11113 -73.90941 34090 ft 422 kts 336°
2026-05-06 18:27 -23.05485 -73.92743 34091 ft 422 kts 336°
2026-05-06 18:28 -22.99850 -73.94546 34092 ft 422 kts 336°
2026-05-06 18:28 -22.94209 -73.96348 34092 ft 422 kts 336°
2026-05-06 18:29 -22.88568 -73.98150 34084 ft 425 kts 336°
2026-05-06 18:29 -22.82936 -73.99946 34091 ft 425 kts 336°
2026-05-06 18:30 -22.77257 -74.01757 34090 ft 424 kts 336°
2026-05-06 18:30 -22.71594 -74.03560 34090 ft 424 kts 336°
2026-05-06 18:31 -22.65930 -74.05363 34083 ft 424 kts 336°
2026-05-06 18:31 -22.60278 -74.07160 34061 ft 425 kts 336°
2026-05-06 18:32 -22.54591 -74.08967 34088 ft 427 kts 336°
2026-05-06 18:32 -22.48895 -74.10775 34086 ft 426 kts 336°
2026-05-06 18:33 -22.43216 -74.12576 34082 ft 426 kts 336°
2026-05-06 18:33 -22.37533 -74.14376 34083 ft 426 kts 336°
2026-05-06 18:34 -22.31838 -74.16179 34081 ft 426 kts 336°
2026-05-06 18:34 -22.26175 -74.17971 34077 ft 427 kts 336°
2026-05-06 18:35 -22.20466 -74.19775 34078 ft 427 kts 336°
2026-05-06 18:35 -22.14765 -74.21576 34078 ft 427 kts 336°
2026-05-06 18:36 -22.09067 -74.23373 34078 ft 427 kts 336°
2026-05-06 18:36 -22.03360 -74.25173 34075 ft 427 kts 336°
2026-05-06 18:37 -21.97651 -74.26971 34068 ft 428 kts 337°
2026-05-06 18:37 -21.91928 -74.28772 34074 ft 428 kts 337°
2026-05-06 18:38 -21.86255 -74.30556 34072 ft 428 kts 337°
2026-05-06 18:38 -21.80541 -74.32351 34070 ft 428 kts 337°
2026-05-06 18:39 -21.74830 -74.34144 34072 ft 428 kts 337°
2026-05-06 18:40 -21.66244 -74.36836 34072 ft 428 kts 337°
2026-05-06 18:40 -21.60524 -74.38629 34069 ft 428 kts 337°
2026-05-06 18:41 -21.54801 -74.40420 34065 ft 428 kts 337°
2026-05-06 18:41 -21.49080 -74.42209 34064 ft 428 kts 337°
2026-05-06 18:42 -21.43396 -74.43986 34064 ft 428 kts 337°
2026-05-06 18:42 -21.37683 -74.45770 34064 ft 428 kts 337°
2026-05-06 18:43 -21.31956 -74.47558 34062 ft 428 kts 337°
2026-05-06 18:43 -21.26263 -74.49333 34061 ft 428 kts 337°
2026-05-06 18:44 -21.20533 -74.51118 34062 ft 428 kts 337°
2026-05-06 18:44 -21.14820 -74.52895 34061 ft 428 kts 337°
2026-05-06 18:45 -21.09096 -74.54675 34057 ft 428 kts 338°
2026-05-06 18:45 -21.03357 -74.56458 34057 ft 430 kts 338°
2026-05-06 18:46 -20.97648 -74.58231 34058 ft 430 kts 338°
2026-05-06 18:46 -20.91915 -74.60009 34056 ft 430 kts 338°
2026-05-06 18:47 -20.86173 -74.61789 34056 ft 430 kts 338°
2026-05-06 18:47 -20.80426 -74.63569 34056 ft 430 kts 338°
2026-05-06 18:48 -20.74673 -74.65350 34042 ft 430 kts 338°
2026-05-06 18:48 -20.68952 -74.67118 34052 ft 431 kts 338°
2026-05-06 18:49 -20.63188 -74.68900 34053 ft 431 kts 338°
2026-05-06 18:49 -20.57427 -74.70678 34051 ft 431 kts 338°
2026-05-06 18:50 -20.51652 -74.72460 34056 ft 431 kts 338°
2026-05-06 18:50 -20.45886 -74.74237 34053 ft 431 kts 338°
2026-05-06 18:51 -20.40117 -74.76014 34051 ft 433 kts 338°
2026-05-06 18:51 -20.34335 -74.77794 34056 ft 432 kts 338°
2026-05-06 18:52 -20.28554 -74.79572 34051 ft 433 kts 338°
2026-05-06 18:52 -20.22769 -74.81350 34048 ft 433 kts 338°
2026-05-06 18:53 -20.17028 -74.83112 34046 ft 433 kts 338°
2026-05-06 18:53 -20.11242 -74.84888 34035 ft 435 kts 338°
2026-05-06 18:54 -20.05402 -74.86678 34045 ft 437 kts 338°
2026-05-06 18:54 -19.99571 -74.88464 34040 ft 436 kts 338°
2026-05-06 18:55 -19.93747 -74.90248 34041 ft 437 kts 338°
2026-05-06 18:55 -19.87904 -74.92035 34044 ft 437 kts 338°
2026-05-06 18:56 -19.82054 -74.93822 34023 ft 437 kts 338°
2026-05-06 18:56 -19.76189 -74.95614 34039 ft 440 kts 338°
2026-05-06 18:57 -19.70357 -74.97394 34036 ft 439 kts 338°
2026-05-06 18:57 -19.64479 -74.99186 34033 ft 440 kts 338°
2026-05-06 18:58 -19.58594 -75.00980 34038 ft 440 kts 338°
2026-05-06 18:58 -19.52705 -75.02773 34033 ft 439 kts 338°
2026-05-06 18:59 -19.46832 -75.04559 34029 ft 440 kts 339°
2026-05-06 18:59 -19.40939 -75.06351 34036 ft 441 kts 338°
2026-05-06 19:00 -19.35053 -75.08139 34030 ft 439 kts 338°
2026-05-06 19:00 -19.29175 -75.09923 34031 ft 439 kts 338°
2026-05-06 19:01 -19.23315 -75.11701 34032 ft 439 kts 338°
2026-05-06 19:01 -19.17429 -75.13485 34012 ft 439 kts 339°
2026-05-06 19:02 -19.11567 -75.15261 34026 ft 441 kts 339°
2026-05-06 19:02 -19.05671 -75.17045 34026 ft 440 kts 339°
2026-05-06 19:03 -18.99788 -75.18825 34020 ft 440 kts 339°
2026-05-06 19:03 -18.93897 -75.20605 34022 ft 441 kts 339°
2026-05-06 19:04 -18.87999 -75.22386 34018 ft 440 kts 339°
2026-05-06 19:04 -18.82141 -75.24154 34011 ft 440 kts 339°
2026-05-06 19:05 -18.76261 -75.25927 34017 ft 440 kts 339°
2026-05-06 19:05 -18.70355 -75.27706 34018 ft 440 kts 339°
2026-05-06 19:06 -18.64455 -75.29483 34020 ft 440 kts 339°
2026-05-06 19:06 -18.58600 -75.31245 34018 ft 440 kts 339°
2026-05-06 19:07 -18.52718 -75.33014 34007 ft 441 kts 339°
2026-05-06 19:07 -18.46807 -75.34790 34015 ft 442 kts 339°
2026-05-06 19:08 -18.40865 -75.36575 34013 ft 442 kts 339°
2026-05-06 19:08 -18.34987 -75.38324 34014 ft 442 kts 340°
2026-05-06 19:09 -18.29054 -75.39995 34017 ft 442 kts 340°
2026-05-06 19:09 -18.23108 -75.41679 34015 ft 442 kts 340°
2026-05-06 19:10 -18.17167 -75.43361 34023 ft 442 kts 340°
2026-05-06 19:10 -18.11240 -75.45038 34011 ft 441 kts 340°
2026-05-06 19:11 -18.05319 -75.46712 34010 ft 441 kts 340°
2026-05-06 19:11 -17.99403 -75.48383 34011 ft 441 kts 340°
2026-05-06 19:12 -17.93521 -75.50044 34016 ft 441 kts 340°
2026-05-06 19:12 -17.87594 -75.51716 33999 ft 441 kts 340°
2026-05-06 19:13 -17.81670 -75.53387 34011 ft 440 kts 341°
2026-05-06 19:13 -17.75762 -75.55051 34007 ft 440 kts 341°
2026-05-06 19:14 -17.70839 -75.56437 34007 ft 440 kts 340°
2026-05-06 19:14 -17.64917 -75.58104 34006 ft 440 kts 340°
2026-05-06 19:15 -17.59002 -75.59767 34010 ft 440 kts 341°
2026-05-06 19:15 -17.53081 -75.61431 33999 ft 442 kts 341°
2026-05-06 19:16 -17.47112 -75.63107 33995 ft 445 kts 341°
2026-05-06 19:16 -17.41133 -75.64785 34004 ft 445 kts 341°
2026-05-06 19:17 -17.35185 -75.66453 34007 ft 445 kts 341°
2026-05-06 19:17 -17.29220 -75.68125 34009 ft 444 kts 341°
2026-05-06 19:18 -17.23244 -75.69799 34010 ft 444 kts 341°
2026-05-06 19:18 -17.17254 -75.71475 34010 ft 447 kts 341°
2026-05-06 19:19 -17.11248 -75.73155 34010 ft 447 kts 341°
2026-05-06 19:19 -17.05248 -75.74832 33999 ft 447 kts 341°
2026-05-06 19:20 -16.99233 -75.76512 33998 ft 447 kts 341°
2026-05-06 19:20 -16.93266 -75.78178 34001 ft 447 kts 341°
2026-05-06 19:21 -16.87253 -75.79855 33984 ft 446 kts 341°
2026-05-06 19:21 -16.81258 -75.81526 33999 ft 446 kts 342°
2026-05-06 19:22 -16.75258 -75.83198 33989 ft 446 kts 342°
2026-05-06 19:22 -16.69257 -75.84868 33997 ft 446 kts 342°
2026-05-06 19:23 -16.63256 -75.86538 34001 ft 446 kts 342°
2026-05-06 19:23 -16.57307 -75.88192 33994 ft 446 kts 342°
2026-05-06 19:24 -16.51304 -75.89860 33991 ft 445 kts 342°
2026-05-06 19:24 -16.45324 -75.91521 33993 ft 445 kts 342°
2026-05-06 19:25 -16.39341 -75.93181 33995 ft 445 kts 342°
2026-05-06 19:25 -16.33367 -75.94838 33994 ft 445 kts 342°
2026-05-06 19:26 -16.27388 -75.96495 33990 ft 445 kts 342°
2026-05-06 19:26 -16.21402 -75.98153 33985 ft 445 kts 342°
2026-05-06 19:27 -16.15444 -75.99802 33988 ft 446 kts 342°
2026-05-06 19:27 -16.09455 -76.01459 34058 ft 447 kts 342°
2026-05-06 19:27 -16.06455 -76.02288 34340 ft 445 kts 342°
2026-05-06 19:28 -16.03452 -76.03119 34597 ft 445 kts 342°
2026-05-06 19:28 -16.00459 -76.03945 34861 ft 444 kts 342°
2026-05-06 19:28 -15.97480 -76.04769 35118 ft 443 kts 342°
2026-05-06 19:28 -15.94502 -76.05591 35374 ft 442 kts 342°
2026-05-06 19:29 -15.91525 -76.06413 35641 ft 442 kts 342°
2026-05-06 19:29 -15.88560 -76.07231 35896 ft 441 kts 342°
2026-05-06 19:29 -15.85600 -76.08048 36122 ft 441 kts 342°
2026-05-06 19:29 -15.82642 -76.08864 36350 ft 440 kts 342°
2026-05-06 19:30 -15.79713 -76.09671 36588 ft 439 kts 342°
2026-05-06 19:30 -15.76759 -76.10485 36828 ft 439 kts 342°
2026-05-06 19:30 -15.73804 -76.11300 37055 ft 438 kts 342°
2026-05-06 19:30 -15.70858 -76.12111 37300 ft 436 kts 342°
2026-05-06 19:31 -15.67928 -76.12918 37538 ft 435 kts 342°
2026-05-06 19:31 -15.65006 -76.13723 37774 ft 434 kts 342°
2026-05-06 19:31 -15.59201 -76.15320 38002 ft 430 kts 342°
2026-05-06 19:32 -15.53484 -76.16893 37972 ft 427 kts 342°
2026-05-06 19:32 -15.47714 -76.18479 37977 ft 430 kts 342°
2026-05-06 19:33 -15.41938 -76.20066 37973 ft 429 kts 342°
2026-05-06 19:33 -15.36166 -76.21651 37977 ft 429 kts 342°
2026-05-06 19:34 -15.30388 -76.23236 37971 ft 429 kts 342°
2026-05-06 19:34 -15.24610 -76.24821 37971 ft 429 kts 342°
2026-05-06 19:35 -15.18834 -76.26404 37960 ft 430 kts 342°
2026-05-06 19:35 -15.13076 -76.27981 37970 ft 431 kts 342°
2026-05-06 19:36 -15.07278 -76.29569 37966 ft 431 kts 342°
2026-05-06 19:36 -15.01477 -76.31156 37966 ft 431 kts 342°
2026-05-06 19:37 -14.95669 -76.32745 37967 ft 431 kts 342°
2026-05-06 19:37 -14.90819 -76.34070 37964 ft 431 kts 342°
2026-05-06 19:38 -14.84075 -76.35913 37964 ft 431 kts 342°
2026-05-06 19:38 -14.78275 -76.37496 37963 ft 431 kts 342°
2026-05-06 19:39 -14.72466 -76.39081 37963 ft 431 kts 342°
2026-05-06 19:39 -14.66703 -76.40653 37962 ft 431 kts 342°
2026-05-06 19:40 -14.60904 -76.42234 37963 ft 431 kts 342°
2026-05-06 19:40 -14.55098 -76.43816 37964 ft 431 kts 342°
2026-05-06 19:41 -14.49278 -76.45400 37961 ft 433 kts 343°
2026-05-06 19:41 -14.43450 -76.46987 37960 ft 433 kts 343°
2026-05-06 19:42 -14.37662 -76.48561 37959 ft 433 kts 343°
2026-05-06 19:42 -14.31837 -76.50145 37959 ft 433 kts 343°
2026-05-06 19:43 -14.26011 -76.51715 37955 ft 432 kts 343°
2026-05-06 19:43 -14.20189 -76.53272 37954 ft 432 kts 343°
2026-05-06 19:44 -14.14368 -76.54828 37952 ft 434 kts 343°
2026-05-06 19:44 -14.08512 -76.56392 37950 ft 434 kts 343°
2026-05-06 19:45 -14.02667 -76.57953 37949 ft 434 kts 343°
2026-05-06 19:45 -13.96849 -76.59506 37948 ft 434 kts 343°
2026-05-06 19:46 -13.91011 -76.61064 37954 ft 434 kts 343°
2026-05-06 19:46 -13.85157 -76.62625 37951 ft 434 kts 343°
2026-05-06 19:47 -13.79303 -76.64185 37946 ft 436 kts 343°
2026-05-06 19:47 -13.73418 -76.65752 37950 ft 436 kts 343°
2026-05-06 19:48 -13.67586 -76.67305 37947 ft 436 kts 343°
2026-05-06 19:48 -13.61704 -76.68870 37945 ft 436 kts 343°
2026-05-06 19:49 -13.55823 -76.70435 37946 ft 436 kts 343°
2026-05-06 19:49 -13.49948 -76.71996 37946 ft 436 kts 343°
2026-05-06 19:50 -13.44057 -76.73561 37953 ft 438 kts 343°
2026-05-06 19:50 -13.38147 -76.75131 37945 ft 438 kts 343°
2026-05-06 19:51 -13.32243 -76.76698 37945 ft 438 kts 343°
2026-05-06 19:51 -13.26373 -76.78255 37951 ft 438 kts 343°
2026-05-06 19:52 -13.20483 -76.79817 37948 ft 438 kts 343°
2026-05-06 19:52 -13.14571 -76.81383 37942 ft 438 kts 344°
2026-05-06 19:53 -13.08647 -76.82952 37952 ft 439 kts 343°
2026-05-06 19:53 -13.02726 -76.84520 37948 ft 439 kts 343°
2026-05-06 19:54 -12.96850 -76.86075 37953 ft 439 kts 343°
2026-05-06 19:54 -12.90929 -76.87641 37957 ft 439 kts 343°
2026-05-06 19:55 -12.85025 -76.89202 37953 ft 438 kts 343°
2026-05-06 19:55 -12.79108 -76.90765 37947 ft 439 kts 344°
2026-05-06 19:56 -12.73179 -76.92331 37966 ft 440 kts 344°
2026-05-06 19:56 -12.67252 -76.93896 37953 ft 440 kts 344°
2026-05-06 19:57 -12.61366 -76.95449 37951 ft 440 kts 344°
2026-05-06 19:57 -12.55418 -76.97017 37956 ft 440 kts 344°
2026-05-06 19:58 -12.49483 -76.98582 37963 ft 440 kts 344°
2026-05-06 19:58 -12.43562 -77.00142 37952 ft 440 kts 344°
2026-05-06 19:59 -12.37620 -77.01707 37965 ft 441 kts 344°
2026-05-06 19:59 -12.31675 -77.03272 37964 ft 441 kts 344°
2026-05-06 20:00 -12.25735 -77.04834 37973 ft 441 kts 344°
2026-05-06 20:00 -12.19804 -77.06394 37967 ft 441 kts 344°
2026-05-06 20:01 -12.13904 -77.07945 37959 ft 441 kts 344°
2026-05-06 20:01 -12.07958 -77.09508 37959 ft 441 kts 344°
2026-05-06 20:02 -12.02159 -77.11479 37971 ft 438 kts 332°
2026-05-06 20:02 -11.96656 -77.14180 37944 ft 439 kts 333°
2026-05-06 20:03 -11.91142 -77.16895 37966 ft 440 kts 333°
2026-05-06 20:03 -11.86554 -77.19161 37972 ft 440 kts 333°
2026-05-06 20:04 -11.81043 -77.21881 37973 ft 440 kts 333°
2026-05-06 20:04 -11.75530 -77.24603 37961 ft 439 kts 333°
2026-05-06 20:05 -11.70027 -77.27317 37976 ft 440 kts 333°
2026-05-06 20:05 -11.64518 -77.30033 37969 ft 439 kts 333°
2026-05-06 20:06 -11.59041 -77.32732 37966 ft 440 kts 333°
2026-05-06 20:06 -11.53539 -77.35443 37967 ft 440 kts 333°
2026-05-06 20:07 -11.48024 -77.38158 37952 ft 440 kts 333°
2026-05-06 20:07 -11.42509 -77.40873 37961 ft 440 kts 333°
2026-05-06 20:08 -11.36989 -77.43589 37956 ft 440 kts 333°
2026-05-06 20:08 -11.31520 -77.46278 37976 ft 440 kts 333°
2026-05-06 20:09 -11.26009 -77.48987 37963 ft 440 kts 333°
2026-05-06 20:09 -11.20496 -77.51697 37974 ft 440 kts 333°
2026-05-06 20:10 -11.14985 -77.54405 37949 ft 440 kts 333°
2026-05-06 20:10 -11.09475 -77.57112 37953 ft 440 kts 333°
2026-05-06 20:11 -11.03959 -77.59820 37966 ft 440 kts 333°
2026-05-06 20:11 -10.98442 -77.62528 37960 ft 440 kts 333°
2026-05-06 20:12 -10.92955 -77.65220 37959 ft 440 kts 333°
2026-05-06 20:12 -10.87450 -77.67919 37941 ft 440 kts 333°
2026-05-06 20:13 -10.81934 -77.70623 37948 ft 440 kts 333°
2026-05-06 20:13 -10.76419 -77.73325 37966 ft 440 kts 333°
2026-05-06 20:14 -10.70901 -77.76027 37969 ft 440 kts 333°
2026-05-06 20:14 -10.65427 -77.78708 37966 ft 440 kts 333°
2026-05-06 20:15 -10.59904 -77.81410 37979 ft 440 kts 333°
2026-05-06 20:15 -10.54385 -77.84110 37980 ft 440 kts 333°
2026-05-06 20:16 -10.48861 -77.86811 37986 ft 440 kts 333°
2026-05-06 20:16 -10.43362 -77.89499 38010 ft 440 kts 333°
2026-05-06 20:17 -10.37848 -77.92193 38006 ft 440 kts 333°
2026-05-06 20:17 -10.32352 -77.94877 38017 ft 440 kts 333°
2026-05-06 20:18 -10.26841 -77.97568 37996 ft 439 kts 333°
2026-05-06 20:18 -10.21312 -78.00219 37977 ft 440 kts 339°
2026-05-06 20:19 -10.18348 -78.00914 37997 ft 441 kts 353°
2026-05-06 20:19 -10.15277 -78.01157 37996 ft 444 kts 353°
2026-05-06 20:19 -10.09090 -78.01568 38024 ft 445 kts 354°
2026-05-06 20:20 -10.02899 -78.01898 38033 ft 445 kts 354°
2026-05-06 20:20 -9.96753 -78.02210 38017 ft 445 kts 355°
2026-05-06 20:21 -9.90567 -78.02522 38054 ft 446 kts 355°
2026-05-06 20:21 -9.84359 -78.02834 38061 ft 446 kts 355°
2026-05-06 20:22 -9.78150 -78.03146 38057 ft 446 kts 355°
2026-05-06 20:22 -9.71940 -78.03458 38079 ft 446 kts 355°
2026-05-06 20:23 -9.65798 -78.03767 38083 ft 445 kts 355°
2026-05-06 20:23 -9.59598 -78.04078 38102 ft 446 kts 355°
2026-05-06 20:24 -9.53380 -78.04390 38104 ft 446 kts 355°
2026-05-06 20:24 -9.47181 -78.04701 38110 ft 446 kts 355°
2026-05-06 20:25 -9.40989 -78.05012 38101 ft 446 kts 355°
2026-05-06 20:25 -9.34828 -78.05321 38109 ft 446 kts 355°
2026-05-06 20:26 -9.28625 -78.05632 38098 ft 446 kts 354°
2026-05-06 20:26 -9.22415 -78.05943 38126 ft 448 kts 355°
2026-05-06 20:27 -9.16215 -78.06253 38149 ft 447 kts 354°
2026-05-06 20:27 -9.09999 -78.06565 38146 ft 447 kts 355°
2026-05-06 20:28 -9.03781 -78.06876 38153 ft 447 kts 355°
2026-05-06 20:28 -8.97606 -78.07185 38152 ft 447 kts 355°
2026-05-06 20:29 -8.91401 -78.07495 38147 ft 447 kts 355°
2026-05-06 20:29 -8.85185 -78.07806 38150 ft 447 kts 355°
2026-05-06 20:30 -8.75832 -78.08273 38159 ft 448 kts 355°
2026-05-06 20:31 -8.69611 -78.08584 38157 ft 447 kts 355°
2026-05-06 20:31 -8.63420 -78.08893 38136 ft 448 kts 355°
2026-05-06 20:32 -8.57193 -78.09204 38148 ft 448 kts 355°
2026-05-06 20:32 -8.50966 -78.09515 38146 ft 448 kts 355°
2026-05-06 20:33 -8.44741 -78.09826 38137 ft 449 kts 355°
2026-05-06 20:33 -8.38501 -78.10137 38134 ft 449 kts 355°
2026-05-06 20:34 -8.32305 -78.10446 38122 ft 449 kts 355°
2026-05-06 20:34 -8.26074 -78.10757 38124 ft 448 kts 355°
2026-05-06 20:35 -8.19842 -78.11067 38107 ft 449 kts 355°
2026-05-06 20:35 -8.13610 -78.11378 38098 ft 450 kts 355°
2026-05-06 20:36 -8.07348 -78.11690 38099 ft 451 kts 355°
2026-05-06 20:36 -8.01068 -78.12003 38073 ft 451 kts 355°
2026-05-06 20:37 -7.94811 -78.12315 38062 ft 451 kts 355°
2026-05-06 20:37 -7.88542 -78.12628 38071 ft 451 kts 355°
2026-05-06 20:38 -7.82265 -78.12940 38041 ft 451 kts 355°
2026-05-06 20:38 -7.76038 -78.13251 38032 ft 451 kts 355°
2026-05-06 20:39 -7.69771 -78.13563 38025 ft 451 kts 355°
2026-05-06 20:39 -7.63508 -78.13874 38018 ft 451 kts 355°
2026-05-06 20:40 -7.57229 -78.14186 38017 ft 451 kts 355°
2026-05-06 20:40 -7.50993 -78.14494 38018 ft 451 kts 355°
2026-05-06 20:41 -7.44732 -78.14804 38021 ft 451 kts 355°
2026-05-06 20:41 -7.38447 -78.15114 38008 ft 453 kts 355°
2026-05-06 20:42 -7.32146 -78.15425 38009 ft 453 kts 355°
2026-05-06 20:42 -7.25839 -78.15737 38026 ft 453 kts 355°
2026-05-06 20:43 -7.19549 -78.16047 38060 ft 453 kts 355°
2026-05-06 20:43 -7.13250 -78.16358 38068 ft 453 kts 355°
2026-05-06 20:44 -7.06980 -78.16667 38059 ft 453 kts 355°
2026-05-06 20:44 -7.00680 -78.16979 38039 ft 452 kts 355°
2026-05-06 20:45 -6.94399 -78.17288 38042 ft 452 kts 355°
2026-05-06 20:45 -6.88143 -78.17597 38042 ft 452 kts 355°
2026-05-06 20:46 -6.81856 -78.17907 38050 ft 452 kts 355°
2026-05-06 20:46 -6.75563 -78.18217 38046 ft 452 kts 355°
2026-05-06 20:47 -6.69280 -78.18526 38036 ft 453 kts 355°
2026-05-06 20:47 -6.63020 -78.18833 38078 ft 455 kts 355°
2026-05-06 20:48 -6.56700 -78.19142 38041 ft 453 kts 355°
2026-05-06 20:48 -6.50381 -78.19451 38039 ft 455 kts 355°
2026-05-06 20:49 -6.44072 -78.19760 38040 ft 454 kts 355°
2026-05-06 20:49 -6.37768 -78.20068 38055 ft 454 kts 355°
2026-05-06 20:50 -6.31438 -78.20378 38027 ft 454 kts 355°
2026-05-06 20:50 -6.25111 -78.20687 38045 ft 456 kts 355°
2026-05-06 20:51 -6.18823 -78.20994 38043 ft 456 kts 355°
2026-05-06 20:51 -6.12482 -78.21304 38032 ft 456 kts 355°
2026-05-06 20:52 -6.06143 -78.21614 38023 ft 456 kts 355°
2026-05-06 20:52 -5.99802 -78.21924 38018 ft 456 kts 355°
2026-05-06 20:53 -5.94542 -78.22180 38038 ft 457 kts 355°
2026-05-06 20:53 -5.88192 -78.22490 38030 ft 456 kts 355°
2026-05-06 20:54 -5.81843 -78.22800 38029 ft 457 kts 355°
2026-05-06 20:54 -5.75501 -78.23110 38036 ft 457 kts 355°
2026-05-06 20:55 -5.69203 -78.23417 38034 ft 457 kts 355°
2026-05-06 20:55 -5.62853 -78.23727 38037 ft 457 kts 355°
2026-05-06 20:56 -5.56506 -78.24037 38038 ft 455 kts 355°
2026-05-06 20:56 -5.50167 -78.24346 38019 ft 456 kts 354°
2026-05-06 20:57 -5.43846 -78.24654 38023 ft 456 kts 354°
2026-05-06 20:57 -5.37507 -78.24963 38034 ft 456 kts 355°
2026-05-06 20:58 -5.31167 -78.25272 38002 ft 455 kts 354°
2026-05-06 20:58 -5.24829 -78.25580 38015 ft 456 kts 354°
2026-05-06 20:59 -5.18496 -78.25888 38007 ft 456 kts 355°
2026-05-06 20:59 -5.12188 -78.26196 38010 ft 457 kts 355°
2026-05-06 21:00 -5.05836 -78.26505 38008 ft 457 kts 355°
2026-05-06 21:00 -4.99485 -78.26814 38008 ft 456 kts 355°
2026-05-06 21:01 -4.93149 -78.27123 38011 ft 457 kts 355°
2026-05-06 21:01 -4.86798 -78.27432 38025 ft 457 kts 355°
2026-05-06 21:02 -4.80445 -78.27741 37997 ft 457 kts 355°
2026-05-06 21:02 -4.74111 -78.28049 38007 ft 458 kts 355°
2026-05-06 21:03 -4.67751 -78.28358 38011 ft 458 kts 355°
2026-05-06 21:03 -4.61382 -78.28668 38019 ft 458 kts 355°
2026-05-06 21:04 -4.55012 -78.28977 38026 ft 458 kts 355°
2026-05-06 21:04 -4.48642 -78.29287 38019 ft 458 kts 355°
2026-05-06 21:05 -4.42276 -78.29596 38029 ft 459 kts 356°
2026-05-06 21:05 -4.35934 -78.29904 38028 ft 459 kts 356°
2026-05-06 21:06 -4.29557 -78.30214 38032 ft 459 kts 356°
2026-05-06 21:06 -4.23175 -78.30524 38038 ft 459 kts 355°
2026-05-06 21:07 -4.16808 -78.30834 38051 ft 459 kts 355°
2026-05-06 21:07 -4.10424 -78.31143 38051 ft 459 kts 355°
2026-05-06 21:08 -4.04034 -78.31454 38052 ft 459 kts 356°
2026-05-06 21:08 -3.97650 -78.31764 38102 ft 459 kts 355°
2026-05-06 21:09 -3.91272 -78.32073 38063 ft 458 kts 356°
2026-05-06 21:09 -3.84945 -78.32380 38079 ft 459 kts 356°
2026-05-06 21:10 -3.78558 -78.32690 38079 ft 459 kts 355°
2026-05-06 21:10 -3.72173 -78.33000 38094 ft 460 kts 356°
2026-05-06 21:11 -3.65769 -78.33311 38110 ft 462 kts 356°
2026-05-06 21:11 -3.59348 -78.33622 38125 ft 462 kts 356°
2026-05-06 21:12 -3.52925 -78.33934 38120 ft 461 kts 356°
2026-05-06 21:12 -3.46495 -78.34250 38118 ft 462 kts 356°
2026-05-06 21:13 -3.40087 -78.34568 38152 ft 462 kts 356°
2026-05-06 21:13 -3.33702 -78.34884 38141 ft 462 kts 356°
2026-05-06 21:14 -3.27272 -78.35202 38170 ft 462 kts 356°
2026-05-06 21:14 -3.20860 -78.35520 38202 ft 463 kts 355°
2026-05-06 21:15 -3.14428 -78.35839 38181 ft 462 kts 356°
2026-05-06 21:15 -3.08018 -78.36155 38224 ft 461 kts 356°
2026-05-06 21:16 -3.01594 -78.36473 38211 ft 462 kts 356°
2026-05-06 21:16 -2.95182 -78.36790 38208 ft 462 kts 356°
2026-05-06 21:17 -2.88793 -78.37107 38224 ft 463 kts 356°
2026-05-06 21:17 -2.82355 -78.37425 38186 ft 462 kts 356°
2026-05-06 21:18 -2.75917 -78.37743 38199 ft 463 kts 356°
2026-05-06 21:18 -2.69523 -78.38060 38202 ft 463 kts 356°
2026-05-06 21:19 -2.63094 -78.38377 38204 ft 463 kts 356°
2026-05-06 21:19 -2.56652 -78.38696 38195 ft 464 kts 356°
2026-05-06 21:20 -2.50176 -78.39016 38190 ft 465 kts 356°
2026-05-06 21:20 -2.43762 -78.39333 38179 ft 465 kts 356°
2026-05-06 21:21 -2.37291 -78.39653 38146 ft 465 kts 356°
2026-05-06 21:21 -2.30833 -78.39972 38163 ft 465 kts 356°
2026-05-06 21:22 -2.24374 -78.40291 38150 ft 465 kts 356°
2026-05-06 21:22 -2.17883 -78.40612 38156 ft 469 kts 356°
2026-05-06 21:23 -2.11355 -78.40935 38175 ft 469 kts 356°
2026-05-06 21:23 -2.04835 -78.41257 38189 ft 469 kts 356°
2026-05-06 21:24 -1.98315 -78.41579 38177 ft 469 kts 356°
2026-05-06 21:24 -1.91807 -78.41900 38175 ft 469 kts 356°
2026-05-06 21:25 -1.85330 -78.42221 38221 ft 470 kts 356°
2026-05-06 21:25 -1.78776 -78.42544 38262 ft 472 kts 356°
2026-05-06 21:26 -1.72213 -78.42868 38286 ft 472 kts 356°
2026-05-06 21:26 -1.65665 -78.43192 38297 ft 472 kts 356°
2026-05-06 21:27 -1.59088 -78.43516 38306 ft 472 kts 356°
2026-05-06 21:27 -1.52523 -78.43841 38282 ft 472 kts 356°
2026-05-06 21:28 -1.45963 -78.44164 38251 ft 475 kts 357°
2026-05-06 21:28 -1.39360 -78.44490 38202 ft 475 kts 357°
2026-05-06 21:29 -1.32739 -78.44817 38227 ft 475 kts 357°
2026-05-06 21:29 -1.26171 -78.45142 38241 ft 476 kts 357°
2026-05-06 21:30 -1.19572 -78.45468 38258 ft 476 kts 357°
2026-05-06 21:30 -1.12955 -78.45793 38234 ft 476 kts 357°
2026-05-06 21:31 -1.06354 -78.46116 38246 ft 474 kts 356°
2026-05-06 21:31 -1.03051 -78.46278 38360 ft 474 kts 356°
2026-05-06 21:31 -0.99760 -78.46438 38383 ft 473 kts 356°
2026-05-06 21:32 -0.93184 -78.46760 38388 ft 474 kts 356°
2026-05-06 21:32 -0.83296 -78.47243 38390 ft 474 kts 356°
2026-05-06 21:33 -0.76705 -78.47566 38370 ft 475 kts 356°
2026-05-06 21:33 -0.70127 -78.47887 38265 ft 476 kts 356°
2026-05-06 21:34 -0.63525 -78.48209 38262 ft 477 kts 355°
2026-05-06 21:34 -0.56888 -78.48534 38267 ft 477 kts 356°
2026-05-06 21:35 -0.50259 -78.48858 38276 ft 477 kts 355°
2026-05-06 21:35 -0.43637 -78.49181 38266 ft 477 kts 356°
2026-05-06 21:36 -0.37006 -78.49505 38242 ft 478 kts 356°
2026-05-06 21:36 -0.30360 -78.49830 38250 ft 478 kts 355°
2026-05-06 21:37 -0.23765 -78.50152 38239 ft 477 kts 356°
2026-05-06 21:37 -0.17143 -78.50476 38249 ft 477 kts 356°
2026-05-06 21:38 -0.10496 -78.50801 38253 ft 478 kts 356°
2026-05-06 21:38 -0.03865 -78.51174 38236 ft 477 kts 351°
2026-05-06 21:39 0.02690 -78.52072 38242 ft 473 kts 352°
2026-05-06 21:39 0.09189 -78.52895 38229 ft 471 kts 352°
2026-05-06 21:40 0.15703 -78.53710 38218 ft 471 kts 352°
2026-05-06 21:40 0.22172 -78.54519 38209 ft 471 kts 352°
2026-05-06 21:41 0.28668 -78.55331 38212 ft 471 kts 352°
2026-05-06 21:41 0.35179 -78.56145 38207 ft 471 kts 352°
2026-05-06 21:42 0.41693 -78.56960 38201 ft 473 kts 352°
2026-05-06 21:42 0.47126 -78.57639 38163 ft 473 kts 352°
2026-05-06 21:43 0.53636 -78.58483 38175 ft 472 kts 352°
2026-05-06 21:43 0.60169 -78.59334 38144 ft 473 kts 352°
2026-05-06 21:44 0.66686 -78.60184 38136 ft 473 kts 352°
2026-05-06 21:44 0.73165 -78.61028 38132 ft 473 kts 352°
2026-05-06 21:45 0.79673 -78.61876 38089 ft 469 kts 353°
2026-05-06 21:45 0.86125 -78.62717 38092 ft 467 kts 353°
2026-05-06 21:46 0.92576 -78.63558 38033 ft 468 kts 353°
2026-05-06 21:46 0.99031 -78.64398 38029 ft 468 kts 353°
2026-05-06 21:47 1.05476 -78.65238 37987 ft 467 kts 353°
2026-05-06 21:47 1.11929 -78.66080 37992 ft 468 kts 353°
2026-05-06 21:48 1.18373 -78.66920 37988 ft 466 kts 353°
2026-05-06 21:48 1.24763 -78.67752 37946 ft 466 kts 353°
2026-05-06 21:49 1.31193 -78.68591 37945 ft 467 kts 353°
2026-05-06 21:49 1.37663 -78.69391 37928 ft 469 kts 353°
2026-05-06 21:50 1.44144 -78.70192 37923 ft 469 kts 353°
2026-05-06 21:50 1.50621 -78.70992 37887 ft 469 kts 353°
2026-05-06 21:51 1.57053 -78.71787 37889 ft 469 kts 353°
2026-05-06 21:51 1.63524 -78.72588 37893 ft 469 kts 353°
2026-05-06 21:52 1.70013 -78.73390 37885 ft 469 kts 353°
2026-05-06 21:52 1.76499 -78.74191 37880 ft 469 kts 353°
2026-05-06 21:53 1.82928 -78.74963 37882 ft 469 kts 353°
2026-05-06 21:53 1.89423 -78.75707 37863 ft 469 kts 353°
2026-05-06 21:54 1.95940 -78.76457 37868 ft 472 kts 353°
2026-05-06 21:54 2.02459 -78.77208 37864 ft 472 kts 353°
2026-05-06 21:55 2.08979 -78.77958 37861 ft 471 kts 353°
2026-05-06 21:55 2.15505 -78.78710 37863 ft 471 kts 353°
2026-05-06 21:56 2.21986 -78.79457 37870 ft 471 kts 353°
2026-05-06 21:56 2.28497 -78.80206 37865 ft 472 kts 353°
2026-05-06 21:57 2.35025 -78.80958 37862 ft 473 kts 353°
2026-05-06 21:57 2.41568 -78.81712 37862 ft 472 kts 353°
2026-05-06 21:58 2.48102 -78.82465 37866 ft 472 kts 353°
2026-05-06 21:58 2.54633 -78.83217 37867 ft 473 kts 353°
2026-05-06 21:59 2.61171 -78.83971 37868 ft 473 kts 353°
2026-05-06 21:59 2.67685 -78.84722 37865 ft 469 kts 353°
2026-05-06 22:00 2.74169 -78.85469 37868 ft 469 kts 353°
2026-05-06 22:00 2.80606 -78.86211 37871 ft 469 kts 353°
2026-05-06 22:01 2.87089 -78.86959 37876 ft 469 kts 353°
2026-05-06 22:01 2.93575 -78.87707 37871 ft 469 kts 353°
2026-05-06 22:02 3.00057 -78.88454 37869 ft 469 kts 354°
2026-05-06 22:02 3.06464 -78.89193 37872 ft 460 kts 355°
2026-05-06 22:03 3.12819 -78.89926 37871 ft 460 kts 355°
2026-05-06 22:03 3.19171 -78.90659 37870 ft 460 kts 355°
2026-05-06 22:04 3.25527 -78.91392 37870 ft 460 kts 355°
2026-05-06 22:04 3.31840 -78.92121 37868 ft 460 kts 355°
2026-05-06 22:05 3.38195 -78.92854 37868 ft 460 kts 355°
2026-05-06 22:05 3.44547 -78.93587 37868 ft 460 kts 355°
2026-05-06 22:06 3.50912 -78.94322 37870 ft 460 kts 355°
2026-05-06 22:06 3.57262 -78.95055 37870 ft 460 kts 355°
2026-05-06 22:07 3.63618 -78.95789 37870 ft 460 kts 355°
2026-05-06 22:07 3.69969 -78.96522 37869 ft 460 kts 355°
2026-05-06 22:08 3.76269 -78.97250 37878 ft 458 kts 355°
2026-05-06 22:08 3.82589 -78.97980 37869 ft 457 kts 355°
2026-05-06 22:09 3.88908 -78.98711 37870 ft 457 kts 355°
2026-05-06 22:09 3.95226 -78.99441 37867 ft 457 kts 355°
2026-05-06 22:10 4.01540 -79.00170 37870 ft 457 kts 355°
2026-05-06 22:10 4.07858 -79.00900 37867 ft 457 kts 355°
2026-05-06 22:11 4.14172 -79.01630 37874 ft 456 kts 355°
2026-05-06 22:11 4.20462 -79.02358 37862 ft 454 kts 355°
2026-05-06 22:12 4.26689 -79.03077 37867 ft 454 kts 355°
2026-05-06 22:12 4.32966 -79.03803 37867 ft 454 kts 355°
2026-05-06 22:13 4.39246 -79.04530 37867 ft 454 kts 355°
2026-05-06 22:13 4.45526 -79.05256 37867 ft 454 kts 355°
2026-05-06 22:14 4.51795 -79.05982 37862 ft 455 kts 355°
2026-05-06 22:14 4.58128 -79.06715 37869 ft 459 kts 355°
2026-05-06 22:15 4.64466 -79.07449 37866 ft 458 kts 355°
2026-05-06 22:15 4.70806 -79.08183 37866 ft 458 kts 355°
2026-05-06 22:16 4.77089 -79.08910 37869 ft 459 kts 355°
2026-05-06 22:16 4.83428 -79.09645 37867 ft 459 kts 355°
2026-05-06 22:17 4.89785 -79.10381 37856 ft 462 kts 355°
2026-05-06 22:17 4.96218 -79.11126 37866 ft 468 kts 355°
2026-05-06 22:18 5.02682 -79.11876 37867 ft 468 kts 355°
2026-05-06 22:18 5.09152 -79.12626 37867 ft 468 kts 355°
2026-05-06 22:19 5.15578 -79.13371 37867 ft 468 kts 355°
2026-05-06 22:19 5.22049 -79.14121 37867 ft 468 kts 355°
2026-05-06 22:20 5.28492 -79.14868 37867 ft 464 kts 354°
2026-05-06 22:20 5.34894 -79.15611 37865 ft 463 kts 354°
2026-05-06 22:21 5.41298 -79.16354 37864 ft 463 kts 354°
2026-05-06 22:21 5.47701 -79.17097 37865 ft 463 kts 354°
2026-05-06 22:22 5.54092 -79.17839 37865 ft 463 kts 354°
2026-05-06 22:22 5.60495 -79.18583 37865 ft 463 kts 354°
2026-05-06 22:23 5.66855 -79.19321 37866 ft 462 kts 354°
2026-05-06 22:23 5.73243 -79.20064 37868 ft 462 kts 354°
2026-05-06 22:24 5.79621 -79.20804 37867 ft 462 kts 354°
2026-05-06 22:24 5.86013 -79.21547 37867 ft 462 kts 354°
2026-05-06 22:25 5.92408 -79.22290 37867 ft 462 kts 354°
2026-05-06 22:25 5.98799 -79.23049 37866 ft 462 kts 354°
2026-05-06 22:26 6.05120 -79.23799 37863 ft 461 kts 354°
2026-05-06 22:26 6.11486 -79.24554 37865 ft 461 kts 354°
2026-05-06 22:27 6.17867 -79.25311 37865 ft 461 kts 354°
2026-05-06 22:27 6.24228 -79.26066 37865 ft 461 kts 354°
2026-05-06 22:28 6.30590 -79.26822 37865 ft 461 kts 354°
2026-05-06 22:28 6.36958 -79.27578 37874 ft 460 kts 354°
2026-05-06 22:29 6.43293 -79.28331 37862 ft 458 kts 354°
2026-05-06 22:29 6.49606 -79.29081 37865 ft 458 kts 354°
2026-05-06 22:30 6.55940 -79.29833 37867 ft 458 kts 354°
2026-05-06 22:30 6.62264 -79.30585 37867 ft 458 kts 354°
2026-05-06 22:31 6.68595 -79.31338 37867 ft 458 kts 354°
2026-05-06 22:31 6.74880 -79.32085 37855 ft 460 kts 354°
2026-05-06 22:32 6.81272 -79.32846 37867 ft 464 kts 354°
2026-05-06 22:32 6.87682 -79.33609 37861 ft 464 kts 354°
2026-05-06 22:33 6.93010 -79.34243 37862 ft 464 kts 354°
2026-05-06 22:33 6.99406 -79.35005 37862 ft 464 kts 354°
2026-05-06 22:34 7.02607 -79.35386 37690 ft 459 kts 354°
2026-05-06 22:34 7.05787 -79.35765 36818 ft 462 kts 354°
2026-05-06 22:34 7.09023 -79.36150 35724 ft 472 kts 354°
2026-05-06 22:34 7.12283 -79.36538 35150 ft 469 kts 354°
2026-05-06 22:35 7.15511 -79.36923 34473 ft 468 kts 354°
2026-05-06 22:35 7.18765 -79.37311 33563 ft 473 kts 354°
2026-05-06 22:35 7.22045 -79.37702 32626 ft 476 kts 354°
2026-05-06 22:35 7.25307 -79.38091 31968 ft 472 kts 354°
2026-05-06 22:36 7.28577 -79.38481 31084 ft 474 kts 354°
2026-05-06 22:36 7.31796 -79.39110 30002 ft 482 kts 347°
2026-05-06 22:36 7.35059 -79.39865 29171 ft 479 kts 348°
2026-05-06 22:36 7.38321 -79.40590 28103 ft 481 kts 349°
2026-05-06 22:37 7.41605 -79.41303 27175 ft 482 kts 349°
2026-05-06 22:37 7.44874 -79.42008 26527 ft 477 kts 349°
2026-05-06 22:37 7.48111 -79.42705 25796 ft 473 kts 349°
2026-05-06 22:37 7.51318 -79.43396 25090 ft 471 kts 350°
2026-05-06 22:38 7.54512 -79.44083 24378 ft 469 kts 350°
2026-05-06 22:38 7.57701 -79.44770 23669 ft 468 kts 350°
2026-05-06 22:38 7.60878 -79.45454 22860 ft 466 kts 350°
2026-05-06 22:38 7.64041 -79.46136 22117 ft 463 kts 350°
2026-05-06 22:39 7.67179 -79.46812 21411 ft 459 kts 350°
2026-05-06 22:39 7.70299 -79.47484 20715 ft 456 kts 350°
2026-05-06 22:39 7.73314 -79.48134 20032 ft 446 kts 351°
2026-05-06 22:39 7.76320 -79.48782 19378 ft 437 kts 351°
2026-05-06 22:40 7.79296 -79.49423 18713 ft 436 kts 351°
2026-05-06 22:40 7.82268 -79.50064 18035 ft 436 kts 351°
2026-05-06 22:40 7.85228 -79.50703 17298 ft 435 kts 351°
2026-05-06 22:40 7.88158 -79.51335 17010 ft 423 kts 351°
2026-05-06 22:41 7.93767 -79.52545 16587 ft 400 kts 351°
2026-05-06 22:41 7.96452 -79.53124 16381 ft 390 kts 351°
2026-05-06 22:41 7.99061 -79.53687 16189 ft 380 kts 351°
2026-05-06 22:42 8.01583 -79.54232 16013 ft 370 kts 351°
2026-05-06 22:42 8.04076 -79.54770 15839 ft 361 kts 351°
2026-05-06 22:42 8.06501 -79.55293 15672 ft 352 kts 351°
2026-05-06 22:42 8.08886 -79.55673 15304 ft 343 kts
2026-05-06 22:43 8.11236 -79.55625 15001 ft 333 kts
2026-05-06 22:43 8.13524 -79.55590 14679 ft 325 kts
2026-05-06 22:43 8.15784 -79.55559 14345 ft 324 kts
2026-05-06 22:43 8.18037 -79.55529 14013 ft 323 kts
2026-05-06 22:44 8.20285 -79.55500 13668 ft 322 kts
2026-05-06 22:44 8.22517 -79.55472 13282 ft 321 kts
2026-05-06 22:44 8.24723 -79.55444 12929 ft 320 kts
2026-05-06 22:44 8.26942 -79.55416 12587 ft 318 kts
2026-05-06 22:45 8.29150 -79.55388 12250 ft 316 kts
2026-05-06 22:45 8.31344 -79.55360 11917 ft 314 kts
2026-05-06 22:45 8.33522 -79.55332 11582 ft 313 kts
2026-05-06 22:45 8.35695 -79.55305 11247 ft 311 kts
2026-05-06 22:46 8.37860 -79.55278 10917 ft 310 kts
2026-05-06 22:46 8.40010 -79.55250 10586 ft 309 kts
2026-05-06 22:46 8.42153 -79.55223 10263 ft 307 kts
2026-05-06 22:46 8.44274 -79.55196 10077 ft 300 kts
2026-05-06 22:47 8.46342 -79.55170 9875 ft 295 kts
2026-05-06 22:47 8.48379 -79.55144 9544 ft 294 kts
2026-05-06 22:47 8.50424 -79.55118 9184 ft 293 kts
2026-05-06 22:47 8.52426 -79.55093 8851 ft 289 kts
2026-05-06 22:48 8.54411 -79.55068 8534 ft 281 kts
2026-05-06 22:48 8.56344 -79.55043 8232 ft 273 kts
2026-05-06 22:48 8.58206 -79.55020 8085 ft 263 kts
2026-05-06 22:48 8.60031 -79.54937 7974 ft 262 kts 11°
2026-05-06 22:49 8.61806 -79.54525 7677 ft 261 kts 15°
2026-05-06 22:49 8.63570 -79.54083 7340 ft 261 kts 15°
2026-05-06 22:49 8.65339 -79.53646 7035 ft 262 kts 14°
2026-05-06 22:49 8.67115 -79.53211 6722 ft 263 kts 14°
2026-05-06 22:50 8.68893 -79.52777 6405 ft 263 kts 14°
2026-05-06 22:50 8.70678 -79.52343 6081 ft 264 kts 14°
2026-05-06 22:50 8.72457 -79.51912 5750 ft 264 kts 14°
2026-05-06 22:50 8.74201 -79.51488 5421 ft 258 kts 14°
2026-05-06 22:51 8.75918 -79.51071 5123 ft 249 kts 13°
2026-05-06 22:51 8.77582 -79.50668 4826 ft 241 kts 14°
2026-05-06 22:51 8.79171 -79.50226 4534 ft 233 kts 19°
2026-05-06 22:51 8.80687 -79.49679 4308 ft 228 kts 19°
2026-05-06 22:52 8.82175 -79.49149 4046 ft 226 kts 18°
2026-05-06 22:52 8.83659 -79.48624 3750 ft 225 kts 18°
2026-05-06 22:52 8.85132 -79.48107 3454 ft 222 kts 18°
2026-05-06 22:52 8.86582 -79.47600 3161 ft 218 kts 18°
2026-05-06 22:53 8.87978 -79.47102 2951 ft 208 kts 19°
2026-05-06 22:53 8.89316 -79.46625 2756 ft 200 kts 19°
2026-05-06 22:53 8.90602 -79.46167 2573 ft 192 kts 19°
2026-05-06 22:53 8.91830 -79.45729 2398 ft 183 kts 18°
2026-05-06 22:54 8.92976 -79.45321 2275 ft 163 kts 17°
2026-05-06 22:54 8.94041 -79.44943 2133 ft 162 kts 19°
2026-05-06 22:54 8.95108 -79.44564 2034 ft 163 kts 19°
2026-05-06 22:54 8.96163 -79.44157 1926 ft 162 kts 25°
2026-05-06 22:55 8.97109 -79.43587 1801 ft 154 kts 31°
2026-05-06 22:55 8.98014 -79.43044 1641 ft 153 kts 29°
2026-05-06 22:55 8.98948 -79.42520 1396 ft 152 kts 28°
2026-05-06 22:55 8.99859 -79.42011 1180 ft 147 kts 27°
2026-05-06 22:56 9.00743 -79.41517 953 ft 145 kts 29°
2026-05-06 22:56 9.01630 -79.41023 663 ft 148 kts 29°
2026-05-06 22:56 9.02540 -79.40518 471 ft 149 kts 29°
2026-05-06 22:56 9.03460 -79.40011 353 ft 152 kts 30°
2026-05-06 22:57 9.04383 -79.39476 164 ft 153 kts 31°
2026-05-06 22:57 9.05292 -79.38963 38 ft 142 kts 31°
2026-05-06 22:57 9.06041 -79.38533 34 ft 96 kts 29°
2026-05-06 22:57 9.06437 -79.38309 31 ft 42 kts 29°
2026-05-06 22:58 9.06706 -79.38156 31 ft 45 kts 29°
2026-05-06 22:58 9.06951 -79.38016 32 ft 38 kts 30°
2026-05-06 22:58 9.07120 -79.37926 32 ft 15 kts
2026-05-06 22:58 9.07179 -79.37976 33 ft 9 kts 298°
2026-05-06 22:59 9.07197 -79.38045 32 ft 11 kts 250°
2026-05-06 22:59 9.07132 -79.38102 32 ft 14 kts 213°
2026-05-06 22:59 9.07040 -79.38154 32 ft 16 kts 208°
2026-05-06 22:59 9.06933 -79.38213 32 ft 19 kts 207°
2026-05-06 23:00 9.06808 -79.38278 32 ft 21 kts 207°
2026-05-06 23:00 9.06674 -79.38346 32 ft 19 kts 209°
2026-05-06 23:00 9.06550 -79.38417 32 ft 22 kts 208°
2026-05-06 23:00 9.06412 -79.38496 32 ft 24 kts 210°
2026-05-06 23:01 9.06294 -79.38566 32 ft 15 kts 210°
2026-05-06 23:01 9.06293 -79.38626 40 ft 10 kts 349°
2026-05-06 23:01 9.06359 -79.38637 32 ft 10 kts 341°
2026-05-06 23:01 9.06412 -79.38655 32 ft 5 kts 340°
2026-05-06 23:02 9.06430 -79.38662 32 ft 2 kts 341°
2026-05-06 23:02 9.06440 -79.38665 32 ft 1 kts 342°
2026-05-06 23:02 9.06442 -79.38666 32 ft 0 kts 342°